TimeMDT,TemperatureF,Dew PointF,Humidity,Sea Level PressureIn,VisibilityMPH,Wind Direction,Wind SpeedMPH,Gust SpeedMPH,PrecipitationIn,Events,Conditions,WindDirDegrees,DateUTC
12:53 AM,45.0,25.0,46,30.06,10.0,WSW,19.6,29.9,N/A,,Clear,240,2013-11-02 06:53:00
1:53 AM,45.0,26.1,48,30.04,10.0,WSW,26.5,32.2,N/A,,Clear,240,2013-11-02 07:53:00
2:53 AM,36.0,24.1,62,30.05,10.0,NW,16.1,21.9,N/A,,Clear,310,2013-11-02 08:53:00
3:53 AM,37.9,24.1,57,30.01,10.0,West,10.4,17.3,N/A,,Clear,280,2013-11-02 09:53:00
4:53 AM,37.9,25.0,60,29.97,10.0,East,6.9,-,N/A,,Clear,100,2013-11-02 10:53:00
5:53 AM,39.9,25.0,55,29.97,10.0,ESE,10.4,-,N/A,,Clear,120,2013-11-02 11:53:00
6:53 AM,37.9,26.1,62,29.95,10.0,Variable,3.5,-,N/A,,Mostly Cloudy,0,2013-11-02 12:53:00
7:53 AM,39.0,25.0,57,29.93,10.0,SE,8.1,-,N/A,,Partly Cloudy,130,2013-11-02 13:53:00
8:53 AM,37.9,25.0,60,29.91,10.0,Variable,5.8,-,N/A,,Clear,0,2013-11-02 14:53:00
9:53 AM,41.0,26.1,55,29.88,10.0,ESE,6.9,-,N/A,,Clear,110,2013-11-02 15:53:00
10:53 AM,46.0,27.0,47,29.80,10.0,East,11.5,-,N/A,,Clear,80,2013-11-02 16:53:00
11:53 AM,50.0,28.0,43,29.75,10.0,East,8.1,-,N/A,,Clear,100,2013-11-02 17:53:00
12:53 PM,59.0,26.1,28,29.67,10.0,SW,32.2,40.3,N/A,,Clear,220,2013-11-02 18:53:00
1:53 PM,59.0,25.0,27,29.61,10.0,SSW,41.4,49.5,N/A,,Clear,210,2013-11-02 19:53:00
2:53 PM,59.0,26.1,28,29.60,10.0,SW,28.8,42.6,N/A,,Clear,230,2013-11-02 20:53:00
3:53 PM,60.1,25.0,26,29.55,10.0,SW,31.1,41.4,N/A,,Clear,220,2013-11-02 21:53:00
4:53 PM,57.0,26.1,30,29.55,10.0,SW,32.2,40.3,N/A,,Clear,230,2013-11-02 22:53:00
5:53 PM,55.0,26.1,33,29.54,10.0,SW,33.4,43.7,N/A,,Clear,220,2013-11-02 23:53:00
6:53 PM,55.9,26.1,32,29.54,10.0,SW,32.2,47.2,N/A,,Clear,220,2013-11-03 00:53:00
7:53 PM,55.9,26.1,32,29.52,10.0,SW,28.8,40.3,N/A,,Mostly Cloudy,230,2013-11-03 01:53:00
8:53 PM,55.0,28.9,37,29.52,10.0,SW,35.7,47.2,N/A,,Overcast,220,2013-11-03 02:53:00
9:53 PM,53.1,30.9,43,29.52,10.0,WSW,31.1,43.7,N/A,,Overcast,250,2013-11-03 03:53:00
10:20 PM,42.1,35.1,76,29.60,10.0,NNW,25.3,34.5,0.00,Rain,Light Rain,330,2013-11-03 04:20:00
10:33 PM,37.9,34.0,86,29.60,9.0,NNW,27.6,33.4,0.00,Rain,Light Rain,340,2013-11-03 04:33:00
10:53 PM,37.0,34.0,89,29.65,6.0,NW,11.5,25.3,0.03,Rain,Rain,310,2013-11-03 04:53:00
11:11 PM,36.0,34.0,93,29.67,6.0,NW,10.4,-,0.02,Rain,Rain,310,2013-11-03 05:11:00
11:53 PM,36.0,-9999,N/A,29.66,10.0,SW,5.8,-,0.06,,Overcast,230,2013-11-03 05:53:00